,,PA_Meas_PMT16A,,PR_Meas_QMR101_102,,RH_Meas_QMH101,,SR_Meas_QMS101,,TA_Meas_QMH101,,GenWind,,GenWind,
time,status,PA,status,PR,status,RH,status,SR,status,TA,status,DirAvg,status,SpdAvg,
2010-06-15, 00:00:04,VALID,919.396,VALID,0,VALID,96.7564,VALID,0,VALID,20.1903,VALID,144,VALID,0.071875,
2010-06-15, 00:01:04,VALID,919.366,VALID,0,VALID,96.7564,VALID,0,VALID,20.2293,VALID,144,VALID,0,
2010-06-15, 00:02:04,VALID,919.378,VALID,0,VALID,96.7564,VALID,0,VALID,20.2293,VALID,144,VALID,0,
2010-06-15, 00:03:04,VALID,919.36,VALID,0,VALID,96.7411,VALID,0,VALID,20.2489,VALID,144,VALID,0,
2010-06-15, 00:04:04,VALID,919.362,VALID,0,VALID,96.7716,VALID,0,VALID,20.2879,VALID,144,VALID,0,
2010-06-15, 00:05:04,VALID,919.367,VALID,0,VALID,96.7335,VALID,0,VALID,20.3074,VALID,144,VALID,0,
2010-06-15, 00:06:04,VALID,919.424,VALID,0,VALID,96.6725,VALID,0,VALID,20.2879,VALID,144,VALID,0,
2010-06-15, 00:07:04,VALID,919.403,VALID,0,VALID,96.6954,VALID,0,VALID,20.3479,VALID,144,VALID,0.278516,
2010-06-15, 00:08:04,VALID,919.43,VALID,0,VALID,96.642,VALID,0,VALID,20.3269,VALID,144,VALID,0,
2010-06-15, 00:09:04,VALID,919.398,VALID,0,VALID,96.6344,VALID,0,VALID,20.3659,VALID,144,VALID,0,
2010-06-15, 00:10:04,VALID,919.415,VALID,0,VALID,96.5963,VALID,0,VALID,20.3659,VALID,144,VALID,0.0703125,
2010-06-15, 00:11:04,VALID,919.432,VALID,0,VALID,96.5124,VALID,0,VALID,20.3659,VALID,144,VALID,0.551562,
2010-06-15, 00:12:04,VALID,919.406,VALID,0,VALID,96.5048,VALID,0,VALID,20.3659,VALID,144,VALID,0.370313,
2010-06-15, 00:13:04,VALID,919.399,VALID,0,VALID,96.4667,VALID,0,VALID,20.3659,VALID,144,VALID,0.290625,
2010-06-15, 00:14:04,VALID,919.388,VALID,0,VALID,96.4057,VALID,0,VALID,20.4064,VALID,144,VALID,0.475391,
2010-06-15, 00:15:04,VALID,919.358,VALID,0,VALID,96.3295,VALID,0,VALID,20.3448,VALID,144,VALID,0.339844,
2010-06-15, 00:16:04,VALID,919.363,VALID,0,VALID,96.3066,VALID,0,VALID,20.3464,VALID,144,VALID,0.398047,
2010-06-15, 00:17:04,VALID,919.321,VALID,0,VALID,96.2609,VALID,0,VALID,20.3464,VALID,144,VALID,0.247266,
2010-06-15, 00:18:04,VALID,919.356,VALID,0,VALID,96.2685,VALID,0,VALID,20.3269,VALID,144,VALID,0.0589844,
2010-06-15, 00:19:04,VALID,919.334,VALID,0,VALID,96.1999,VALID,0,VALID,20.3269,VALID,144,VALID,0,
2010-06-15, 00:20:04,VALID,919.361,VALID,0,VALID,96.1999,VALID,0,VALID,20.3464,VALID,144,VALID,0.408984,
2010-06-15, 00:21:04,VALID,919.315,VALID,0,VALID,96.2075,VALID,0,VALID,20.3253,VALID,144,VALID,0.289453,
2010-06-15, 00:22:04,VALID,919.322,VALID,0,VALID,96.177,VALID,0,VALID,20.3464,VALID,144,VALID,0.280469,
2010-06-15, 00:23:04,VALID,919.323,VALID,0,VALID,96.177,VALID,0,VALID,20.3253,VALID,144,VALID,0.207422,
2010-06-15, 00:24:04,VALID,919.324,VALID,0,VALID,96.1389,VALID,0,VALID,20.3058,VALID,144,VALID,0.244531,
2010-06-15, 00:25:04,VALID,919.337,VALID,0,VALID,96.0245,VALID,0,VALID,20.2473,VALID,144,VALID,0,
2010-06-15, 00:26:04,VALID,919.341,VALID,0,VALID,95.895,VALID,0,VALID,20.2293,VALID,144,VALID,0,
2010-06-15, 00:27:04,VALID,919.365,VALID,0,VALID,95.7882,VALID,0,VALID,20.1903,VALID,144,VALID,0,
2010-06-15, 00:28:04,VALID,919.348,VALID,0,VALID,95.8187,VALID,0,VALID,20.1708,VALID,144,VALID,0,
2010-06-15, 00:29:04,VALID,919.338,VALID,0,VALID,95.9407,VALID,0,VALID,20.1708,VALID,144,VALID,0,
2010-06-15, 00:30:04,VALID,919.365,VALID,0,VALID,96.0093,VALID,0,VALID,20.1498,VALID,144,VALID,0,
2010-06-15, 00:31:04,VALID,919.364,VALID,0,VALID,96.0703,VALID,0,VALID,20.1513,VALID,144,VALID,0,
2010-06-15, 00:32:04,VALID,919.342,VALID,0,VALID,96.1389,VALID,0,VALID,20.1303,VALID,144,VALID,0,
2010-06-15, 00:33:04,VALID,919.351,VALID,0,VALID,96.1008,VALID,0,VALID,20.0913,VALID,144,VALID,0,
2010-06-15, 00:34:04,VALID,919.327,VALID,0,VALID,96.1313,VALID,0,VALID,20.0928,VALID,144,VALID,0,
2010-06-15, 00:35:04,VALID,919.331,VALID,0,VALID,96.1465,VALID,0,VALID,20.0733,VALID,144,VALID,0.486328,
2010-06-15, 00:36:04,VALID,919.317,VALID,0,VALID,96.1465,VALID,0,VALID,20.0328,VALID,144,VALID,0.489062,
2010-06-15, 00:37:04,VALID,919.284,VALID,0,VALID,96.1465,VALID,0,VALID,19.9938,VALID,144,VALID,0.558984,
2010-06-15, 00:38:04,VALID,919.279,VALID,0,VALID,96.1313,VALID,0,VALID,19.9743,VALID,144,VALID,0.545703,
2010-06-15, 00:39:04,VALID,919.251,VALID,0,VALID,96.1465,VALID,0,VALID,19.9743,VALID,144,VALID,0.35625,
2010-06-15, 00:40:04,VALID,919.244,VALID,0,VALID,96.116,VALID,0,VALID,19.9368,VALID,144,VALID,0.608203,
2010-06-15, 00:41:04,VALID,919.221,VALID,0,VALID,96.2075,VALID,0,VALID,19.9353,VALID,144,VALID,0.646484,
2010-06-15, 00:42:04,VALID,919.204,VALID,0,VALID,96.2228,VALID,0,VALID,19.9368,VALID,144,VALID,0.589844,
2010-06-15, 00:43:04,VALID,919.182,VALID,0,VALID,96.1694,VALID,0,VALID,19.8978,VALID,144,VALID,0.565234,
2010-06-15, 00:44:04,VALID,919.163,VALID,0,VALID,96.238,VALID,0,VALID,19.8768,VALID,144,VALID,0.478125,
2010-06-15, 00:45:04,VALID,919.15,VALID,0,VALID,96.3371,VALID,0,VALID,19.8963,VALID,144,VALID,0.410547,
2010-06-15, 00:46:04,VALID,919.164,VALID,0,VALID,96.4743,VALID,0,VALID,19.9548,VALID,144,VALID,0.34375,
2010-06-15, 00:47:04,VALID,919.158,VALID,0,VALID,96.5277,VALID,0,VALID,20.0148,VALID,144,VALID,0.229297,
2010-06-15, 00:48:04,VALID,919.163,VALID,0,VALID,96.5887,VALID,0,VALID,20.0328,VALID,144,VALID,0.109766,
2010-06-15, 00:49:04,VALID,919.165,VALID,0,VALID,96.6192,VALID,0,VALID,20.1123,VALID,144,VALID,0,
2010-06-15, 00:50:04,VALID,919.129,VALID,0,VALID,96.6115,VALID,0,VALID,20.1513,VALID,144,VALID,0,
2010-06-15, 00:51:04,VALID,919.13,VALID,0,VALID,96.6192,VALID,0,VALID,20.1693,VALID,144,VALID,0,
2010-06-15, 00:52:04,VALID,919.09,VALID,0,VALID,96.421,VALID,0,VALID,20.0913,VALID,144,VALID,0.213672,
2010-06-15, 00:53:04,VALID,919.067,VALID,0,VALID,96.3752,VALID,0,VALID,20.0523,VALID,144,VALID,0.585547,
2010-06-15, 00:54:04,VALID,919.016,VALID,0,VALID,96.2761,VALID,0,VALID,20.0148,VALID,144,VALID,0.683203,
2010-06-15, 00:55:04,VALID,919.033,VALID,0,VALID,96.3905,VALID,0,VALID,20.0343,VALID,144,VALID,0.405859,
2010-06-15, 00:56:04,VALID,919.022,VALID,0,VALID,96.4667,VALID,0,VALID,20.0928,VALID,144,VALID,0,
2010-06-15, 00:57:04,VALID,919.022,VALID,0,VALID,96.4972,VALID,0,VALID,20.1318,VALID,144,VALID,0.248828,
2010-06-15, 00:58:04,VALID,919.058,VALID,0,VALID,96.4819,VALID,0,VALID,20.1513,VALID,144,VALID,0.439844,
2010-06-15, 00:59:04,VALID,919.043,VALID,0,VALID,96.4743,VALID,0,VALID,20.1888,VALID,144,VALID,0.632422,
2010-06-15, 01:00:04,VALID,919.026,VALID,0,VALID,96.4362,VALID,0,VALID,20.2098,VALID,144,VALID,0.339844,
2010-06-15, 01:01:04,VALID,919.023,VALID,0,VALID,96.3752,VALID,0,VALID,20.2293,VALID,144,VALID,0.35625,
2010-06-15, 01:02:04,VALID,918.988,VALID,0,VALID,96.2533,VALID,0,VALID,20.1903,VALID,144,VALID,0.466797,
2010-06-15, 01:03:04,VALID,919,VALID,0,VALID,96.1618,VALID,0,VALID,20.1693,VALID,144,VALID,0.598047,
2010-06-15, 01:04:04,VALID,918.964,VALID,0,VALID,96.2075,VALID,0,VALID,20.1888,VALID,144,VALID,0.549609,
2010-06-15, 01:05:04,VALID,918.967,VALID,0,VALID,96.2151,VALID,0,VALID,20.2293,VALID,144,VALID,0.677734,
2010-06-15, 01:06:04,VALID,918.952,VALID,0,VALID,96.177,VALID,0,VALID,20.2684,VALID,144,VALID,0.704297,
2010-06-15, 01:07:04,VALID,918.943,VALID,0,VALID,96.1084,VALID,0,VALID,20.3074,VALID,144,VALID,0.473047,
2010-06-15, 01:08:04,VALID,918.932,VALID,0,VALID,96.0245,VALID,0,VALID,20.3464,VALID,144,VALID,0.279687,
2010-06-15, 01:09:04,VALID,918.924,VALID,0,VALID,95.8873,VALID,0,VALID,20.3464,VALID,144,VALID,0.00546875,
2010-06-15, 01:10:04,VALID,918.9,VALID,0,VALID,95.6739,VALID,0,VALID,20.3269,VALID,144,VALID,0.183984,
2010-06-15, 01:11:04,VALID,918.88,VALID,0,VALID,95.5671,VALID,0,VALID,20.3253,VALID,144,VALID,0.261719,
2010-06-15, 01:12:04,VALID,918.854,VALID,0,VALID,95.5443,VALID,0,VALID,20.3464,VALID,144,VALID,0.189063,
2010-06-15, 01:13:04,VALID,918.856,VALID,0,VALID,95.4909,VALID,0,VALID,20.3464,VALID,144,VALID,0.119141,
2010-06-15, 01:14:04,VALID,918.825,VALID,0,VALID,95.4757,VALID,0,VALID,20.3269,VALID,144,VALID,0,
2010-06-15, 01:15:04,VALID,918.815,VALID,0,VALID,95.4299,VALID,0,VALID,20.3269,VALID,144,VALID,0,
2010-06-15, 01:16:04,VALID,918.81,VALID,0,VALID,95.3384,VALID,0,VALID,20.2668,VALID,144,VALID,0,
2010-06-15, 01:17:04,VALID,918.805,VALID,0,VALID,95.3384,VALID,0,VALID,20.2684,VALID,144,VALID,0,
2010-06-15, 01:18:04,VALID,918.787,VALID,0,VALID,95.2698,VALID,0,VALID,20.2293,VALID,144,VALID,0.407031,
2010-06-15, 01:19:04,VALID,918.791,VALID,0,VALID,95.3994,VALID,0,VALID,20.2083,VALID,144,VALID,0.427734,
2010-06-15, 01:20:04,VALID,918.781,VALID,0,VALID,95.4071,VALID,0,VALID,20.2098,VALID,144,VALID,0.247656,
2010-06-15, 01:21:04,VALID,918.79,VALID,0,VALID,95.5062,VALID,0,VALID,20.2098,VALID,144,VALID,0.0484375,
2010-06-15, 01:22:04,VALID,918.784,VALID,0,VALID,95.5138,VALID,0,VALID,20.1903,VALID,144,VALID,0.299219,
2010-06-15, 01:23:04,VALID,918.787,VALID,0,VALID,95.5214,VALID,0,VALID,20.1513,VALID,144,VALID,0.478906,
2010-06-15, 01:24:04,VALID,918.758,VALID,0,VALID,95.6053,VALID,0,VALID,20.1318,VALID,144,VALID,0.398828,
2010-06-15, 01:25:04,VALID,918.711,VALID,0,VALID,95.7044,VALID,0,VALID,20.1303,VALID,144,VALID,0,
2010-06-15, 01:26:04,VALID,918.705,VALID,0,VALID,95.6815,VALID,0,VALID,20.1318,VALID,144,VALID,0.01875,
2010-06-15, 01:27:04,VALID,918.741,VALID,0,VALID,95.5214,VALID,0,VALID,20.0328,VALID,144,VALID,0,
2010-06-15, 01:28:04,VALID,918.735,VALID,0,VALID,95.5748,VALID,0,VALID,20.0343,VALID,144,VALID,0,
2010-06-15, 01:29:04,VALID,918.735,VALID,0,VALID,95.6815,VALID,0,VALID,20.0343,VALID,144,VALID,0,
2010-06-15, 01:30:04,VALID,918.776,VALID,0,VALID,95.9178,VALID,0,VALID,20.0733,VALID,144,VALID,0.240234,
2010-06-15, 01:31:04,VALID,918.757,VALID,0,VALID,95.9636,VALID,0,VALID,20.0538,VALID,144,VALID,0.2125,
2010-06-15, 01:32:04,VALID,918.786,VALID,0,VALID,96.0703,VALID,0,VALID,20.0733,VALID,144,VALID,0,
2010-06-15, 01:33:04,VALID,918.797,VALID,0,VALID,96.1313,VALID,0,VALID,20.0928,VALID,144,VALID,0,
2010-06-15, 01:34:04,VALID,918.799,VALID,0,VALID,96.0322,VALID,0,VALID,20.0733,VALID,144,VALID,0,
2010-06-15, 01:35:04,VALID,918.806,VALID,0,VALID,95.9331,VALID,0,VALID,20.0148,VALID,144,VALID,0.189844,
2010-06-15, 01:36:04,VALID,918.76,VALID,0,VALID,95.7806,VALID,0,VALID,19.9563,VALID,144,VALID,0.523438,
2010-06-15, 01:37:04,VALID,918.741,VALID,0,VALID,95.7501,VALID,0,VALID,19.9173,VALID,144,VALID,0.348828,
2010-06-15, 01:38:04,VALID,918.732,VALID,0,VALID,95.8416,VALID,0,VALID,19.8978,VALID,144,VALID,0,
2010-06-15, 01:39:04,VALID,918.686,VALID,0,VALID,95.9483,VALID,0,VALID,19.9173,VALID,144,VALID,0.0136719,
2010-06-15, 01:40:04,VALID,918.632,VALID,0,VALID,96.0398,VALID,0,VALID,19.8978,VALID,144,VALID,0.590234,
2010-06-15, 01:41:04,VALID,918.603,VALID,0,VALID,96.2075,VALID,0,VALID,19.9563,VALID,144,VALID,0.677344,
2010-06-15, 01:42:04,VALID,918.583,VALID,0,VALID,96.299,VALID,0,VALID,19.9953,VALID,144,VALID,0.834375,
2010-06-15, 01:43:04,VALID,918.571,VALID,0,VALID,96.3219,VALID,0,VALID,19.9563,VALID,144,VALID,0.727344,
2010-06-15, 01:44:04,VALID,918.567,VALID,0,VALID,96.3447,VALID,0,VALID,19.9563,VALID,144,VALID,0.431641,
2010-06-15, 01:45:04,VALID,918.552,VALID,0,VALID,96.3829,VALID,0,VALID,19.9548,VALID,144,VALID,0.408984,
2010-06-15, 01:46:04,VALID,918.544,VALID,0,VALID,96.3981,VALID,0,VALID,19.9548,VALID,144,VALID,0.476563,
2010-06-15, 01:47:04,VALID,918.484,VALID,0,VALID,96.3905,VALID,0,VALID,19.9758,VALID,144,VALID,0.569531,
2010-06-15, 01:48:04,VALID,918.476,VALID,0,VALID,96.3905,VALID,0,VALID,19.9563,VALID,144,VALID,0.358984,
2010-06-15, 01:49:04,VALID,918.526,VALID,0,VALID,96.4057,VALID,0,VALID,19.9563,VALID,144,VALID,0.270703,
2010-06-15, 01:50:04,VALID,918.508,VALID,0,VALID,96.421,VALID,0,VALID,19.9353,VALID,144,VALID,0.272656,
2010-06-15, 01:51:04,VALID,918.521,VALID,0,VALID,96.4286,VALID,0,VALID,19.9353,VALID,144,VALID,0.358594,
2010-06-15, 01:52:04,VALID,918.496,VALID,0,VALID,96.4362,VALID,0,VALID,19.9563,VALID,144,VALID,0.219922,
2010-06-15, 01:53:04,VALID,918.526,VALID,0,VALID,96.4591,VALID,0,VALID,19.9563,VALID,144,VALID,0.0449219,
2010-06-15, 01:54:04,VALID,918.507,VALID,0,VALID,96.4896,VALID,0,VALID,19.9563,VALID,144,VALID,0,
2010-06-15, 01:55:04,VALID,918.519,VALID,0,VALID,96.4972,VALID,0,VALID,19.9563,VALID,144,VALID,0.133203,
2010-06-15, 01:56:04,VALID,918.493,VALID,0,VALID,96.3676,VALID,0,VALID,19.8978,VALID,144,VALID,0.3,
2010-06-15, 01:57:04,VALID,918.522,VALID,0,VALID,96.3371,VALID,0,VALID,19.8378,VALID,144,VALID,0.155859,
2010-06-15, 01:58:04,VALID,918.561,VALID,0,VALID,96.4438,VALID,0,VALID,19.8783,VALID,144,VALID,0.535547,
2010-06-15, 01:59:04,VALID,918.525,VALID,0,VALID,96.6192,VALID,0,VALID,19.9758,VALID,144,VALID,0.402734,
2010-06-15, 02:00:04,VALID,918.516,VALID,0,VALID,96.5811,VALID,0,VALID,19.9953,VALID,144,VALID,0.485938,
2010-06-15, 02:01:04,VALID,918.503,VALID,0,VALID,96.3752,VALID,0,VALID,19.8783,VALID,144,VALID,0.739844,
2010-06-15, 02:02:04,VALID,918.505,VALID,0,VALID,96.3447,VALID,0,VALID,19.8198,VALID,144,VALID,0.618359,
2010-06-15, 02:03:04,VALID,918.489,VALID,0,VALID,96.3752,VALID,0,VALID,19.7793,VALID,144,VALID,0.243359,
2010-06-15, 02:04:04,VALID,918.489,VALID,0,VALID,96.4591,VALID,0,VALID,19.8198,VALID,144,VALID,0.121484,
2010-06-15, 02:05:04,VALID,918.533,VALID,0,VALID,96.5734,VALID,0,VALID,19.8588,VALID,144,VALID,0.730469,
2010-06-15, 02:06:04,VALID,918.507,VALID,0,VALID,96.6268,VALID,0,VALID,19.8978,VALID,144,VALID,0.149609,
2010-06-15, 02:07:04,VALID,918.491,VALID,0,VALID,96.7107,VALID,0.107441,VALID,19.9353,VALID,144,VALID,0.00546875,
2010-06-15, 02:08:04,VALID,918.465,VALID,0,VALID,96.7183,VALID,0.107441,VALID,19.9743,VALID,144,VALID,0.45,
2010-06-15, 02:09:04,VALID,918.475,VALID,0,VALID,96.7183,VALID,0.107441,VALID,19.9938,VALID,144,VALID,0.398438,
2010-06-15, 02:10:04,VALID,918.497,VALID,0,VALID,96.7259,VALID,0.107441,VALID,19.9938,VALID,144,VALID,0,
2010-06-15, 02:11:04,VALID,918.516,VALID,0,VALID,96.764,VALID,0.107441,VALID,20.0328,VALID,144,VALID,0.380078,
2010-06-15, 02:12:04,VALID,918.481,VALID,0,VALID,96.7793,VALID,0.107441,VALID,20.0913,VALID,144,VALID,0.0539063,
2010-06-15, 02:13:04,VALID,918.46,VALID,0,VALID,96.764,VALID,0.107441,VALID,20.1108,VALID,144,VALID,0.536719,
2010-06-15, 02:14:04,VALID,918.498,VALID,0,VALID,96.7716,VALID,0.107441,VALID,20.1288,VALID,144,VALID,0.334375,
2010-06-15, 02:15:04,VALID,918.488,VALID,0,VALID,96.6725,VALID,0,VALID,20.1318,VALID,144,VALID,0,
2010-06-15, 02:16:04,VALID,918.499,VALID,0,VALID,96.6268,VALID,0,VALID,20.1318,VALID,144,VALID,0,
2010-06-15, 02:17:04,VALID,918.457,VALID,0,VALID,96.642,VALID,0,VALID,20.1303,VALID,144,VALID,0,
2010-06-15, 02:18:04,VALID,918.451,VALID,0,VALID,96.5353,VALID,0,VALID,20.1318,VALID,144,VALID,0.289063,
2010-06-15, 02:19:04,VALID,918.451,VALID,0,VALID,96.4896,VALID,0,VALID,20.0928,VALID,144,VALID,0.380078,
2010-06-15, 02:20:04,VALID,918.425,VALID,0,VALID,96.4362,VALID,0,VALID,20.0538,VALID,144,VALID,0.322266,
2010-06-15, 02:21:04,VALID,918.405,VALID,0,VALID,96.3524,VALID,0,VALID,20.0343,VALID,144,VALID,0.135937,
2010-06-15, 02:22:04,VALID,918.409,VALID,0,VALID,96.3752,VALID,0,VALID,20.0343,VALID,144,VALID,0.484375,
2010-06-15, 02:23:04,VALID,918.401,VALID,0,VALID,96.3981,VALID,0,VALID,20.0538,VALID,144,VALID,0.558984,
2010-06-15, 02:24:04,VALID,918.402,VALID,0,VALID,96.4438,VALID,0,VALID,20.0733,VALID,144,VALID,0.691797,
2010-06-15, 02:25:04,VALID,918.393,VALID,0,VALID,96.4591,VALID,0,VALID,20.0928,VALID,144,VALID,0.685156,
2010-06-15, 02:26:04,VALID,918.37,VALID,0,VALID,96.4515,VALID,0,VALID,20.0928,VALID,144,VALID,0.425781,
2010-06-15, 02:27:04,VALID,918.357,VALID,0,VALID,96.4591,VALID,0,VALID,20.0928,VALID,144,VALID,0.223047,
2010-06-15, 02:28:04,VALID,918.37,VALID,0,VALID,96.5124,VALID,0,VALID,20.0928,VALID,144,VALID,0.321484,
2010-06-15, 02:29:04,VALID,918.373,VALID,0,VALID,96.5277,VALID,0,VALID,20.0913,VALID,144,VALID,0.633984,
2010-06-15, 02:30:04,VALID,918.312,VALID,0,VALID,96.5124,VALID,0,VALID,20.1123,VALID,144,VALID,0.275391,
2010-06-15, 02:31:04,VALID,918.28,VALID,0,VALID,96.5506,VALID,0,VALID,20.1108,VALID,144,VALID,0.147266,
2010-06-15, 02:32:04,VALID,918.25,VALID,0,VALID,96.4743,VALID,0,VALID,20.1123,VALID,144,VALID,0.171875,
2010-06-15, 02:33:04,VALID,918.266,VALID,0,VALID,96.3905,VALID,0,VALID,20.0928,VALID,144,VALID,0.125391,
2010-06-15, 02:34:04,VALID,918.292,VALID,0,VALID,96.4438,VALID,0,VALID,20.0928,VALID,144,VALID,0,
2010-06-15, 02:35:04,VALID,918.275,VALID,0,VALID,96.4896,VALID,0,VALID,20.0913,VALID,144,VALID,0.329688,
2010-06-15, 02:36:04,VALID,918.28,VALID,0,VALID,96.5124,VALID,0,VALID,20.1498,VALID,144,VALID,0.417188,
2010-06-15, 02:37:04,VALID,918.287,VALID,0,VALID,96.5582,VALID,0,VALID,20.2083,VALID,144,VALID,0.442187,
2010-06-15, 02:38:04,VALID,918.3,VALID,0,VALID,96.4896,VALID,0,VALID,20.2489,VALID,144,VALID,0,
2010-06-15, 02:39:04,VALID,918.29,VALID,0,VALID,96.3752,VALID,0,VALID,20.2083,VALID,144,VALID,0,
2010-06-15, 02:40:04,VALID,918.27,VALID,0,VALID,96.3066,VALID,0,VALID,20.2489,VALID,144,VALID,0.295312,
2010-06-15, 02:41:04,VALID,918.253,VALID,0,VALID,96.299,VALID,0,VALID,20.2293,VALID,144,VALID,0.253516,
2010-06-15, 02:42:04,VALID,918.233,VALID,0,VALID,96.2533,VALID,0.107441,VALID,20.2278,VALID,144,VALID,0,
2010-06-15, 02:43:04,VALID,918.165,VALID,0,VALID,96.1084,VALID,0,VALID,20.1903,VALID,144,VALID,0.507422,
2010-06-15, 02:44:04,VALID,918.147,VALID,0,VALID,95.8111,VALID,0,VALID,20.0928,VALID,144,VALID,0.905469,
2010-06-15, 02:45:04,VALID,918.163,VALID,0,VALID,95.7501,VALID,0,VALID,20.0538,VALID,144,VALID,0.466797,
2010-06-15, 02:46:04,VALID,918.149,VALID,0,VALID,95.9559,VALID,0.107441,VALID,20.0523,VALID,144,VALID,0.478516,
2010-06-15, 02:47:04,VALID,918.167,VALID,0,VALID,96.055,VALID,0,VALID,20.0928,VALID,144,VALID,0.244922,
2010-06-15, 02:48:04,VALID,918.135,VALID,0,VALID,96.1694,VALID,0,VALID,20.1303,VALID,144,VALID,0.354688,
2010-06-15, 02:49:04,VALID,918.096,VALID,0,VALID,96.2228,VALID,0,VALID,20.1318,VALID,144,VALID,1.32852,
2010-06-15, 02:50:04,VALID,918.081,VALID,0,VALID,96.1541,VALID,0,VALID,20.1108,VALID,144,VALID,1.01406,
2010-06-15, 02:51:04,VALID,918.056,VALID,0,VALID,96.0627,VALID,0,VALID,20.0733,VALID,144,VALID,0.987109,
2010-06-15, 02:52:04,VALID,918.044,VALID,0,VALID,96.1389,VALID,0,VALID,20.0733,VALID,144,VALID,0.844141,
2010-06-15, 02:53:04,VALID,918.027,VALID,0,VALID,96.1846,VALID,0,VALID,20.0328,VALID,144,VALID,0.367578,
2010-06-15, 02:54:04,VALID,917.997,VALID,0,VALID,96.2533,VALID,0,VALID,20.0538,VALID,144,VALID,0.434375,
2010-06-15, 02:55:04,VALID,917.97,VALID,0,VALID,96.3219,VALID,0,VALID,20.0328,VALID,144,VALID,0.541797,
2010-06-15, 02:56:04,VALID,917.981,VALID,0,VALID,96.2761,VALID,0,VALID,20.0538,VALID,144,VALID,0.801562,
2010-06-15, 02:57:04,VALID,917.948,VALID,0,VALID,96.2609,VALID,0.107441,VALID,19.9938,VALID,144,VALID,0.776563,
2010-06-15, 02:58:04,VALID,917.94,VALID,0,VALID,96.238,VALID,0,VALID,19.9953,VALID,144,VALID,0.908984,
2010-06-15, 02:59:04,VALID,917.917,VALID,0,VALID,96.3981,VALID,0,VALID,19.9938,VALID,144,VALID,0.779688,
2010-06-15, 03:00:04,VALID,917.928,VALID,0,VALID,96.3981,VALID,0,VALID,20.0343,VALID,144,VALID,0.895703,
2010-06-15, 03:01:04,VALID,917.908,VALID,0,VALID,96.4286,VALID,0,VALID,19.9953,VALID,144,VALID,0.710547,
2010-06-15, 03:02:04,VALID,917.885,VALID,0,VALID,96.5353,VALID,0,VALID,20.0538,VALID,144,VALID,0.465234,
2010-06-15, 03:03:04,VALID,917.881,VALID,0,VALID,96.5582,VALID,0.107441,VALID,20.0733,VALID,144,VALID,0.304297,
2010-06-15, 03:04:04,VALID,917.868,VALID,0,VALID,96.6268,VALID,0,VALID,20.0928,VALID,144,VALID,0.469141,
2010-06-15, 03:05:04,VALID,917.831,VALID,0,VALID,96.5887,VALID,0,VALID,20.1318,VALID,144,VALID,0.301172,
2010-06-15, 03:06:04,VALID,917.81,VALID,0,VALID,96.6039,VALID,0,VALID,20.1318,VALID,144,VALID,0.656641,
2010-06-15, 03:07:04,VALID,917.801,VALID,0,VALID,96.4515,VALID,0,VALID,20.1123,VALID,144,VALID,0.70625,
2010-06-15, 03:08:04,VALID,917.765,VALID,0,VALID,96.5048,VALID,0,VALID,20.1513,VALID,144,VALID,0.917188,
2010-06-15, 03:09:04,VALID,917.76,VALID,0,VALID,96.5277,VALID,0,VALID,20.1903,VALID,144,VALID,0.732422,
2010-06-15, 03:10:04,VALID,917.778,VALID,0,VALID,96.4667,VALID,0,VALID,20.1903,VALID,144,VALID,0.545703,
2010-06-15, 03:11:04,VALID,917.763,VALID,0,VALID,96.3676,VALID,0,VALID,20.1708,VALID,144,VALID,0.670703,
2010-06-15, 03:12:04,VALID,917.718,VALID,0,VALID,96.3752,VALID,0,VALID,20.1708,VALID,144,VALID,0.985547,
2010-06-15, 03:13:04,VALID,917.724,VALID,0,VALID,96.3295,VALID,0,VALID,20.1708,VALID,144,VALID,1.10664,
2010-06-15, 03:14:04,VALID,917.711,VALID,0,VALID,96.3371,VALID,0,VALID,20.1513,VALID,144,VALID,1.06289,
2010-06-15, 03:15:04,VALID,917.701,VALID,0,VALID,96.3905,VALID,0,VALID,20.1513,VALID,19,VALID,1.50547,
2010-06-15, 03:16:04,VALID,917.698,VALID,0,VALID,96.3524,VALID,0,VALID,20.1513,VALID,19,VALID,1.09922,
2010-06-15, 03:17:04,VALID,917.711,VALID,0,VALID,96.4591,VALID,0,VALID,20.2098,VALID,19,VALID,1.12305,
2010-06-15, 03:18:04,VALID,917.714,VALID,0,VALID,96.3752,VALID,0,VALID,20.2489,VALID,18,VALID,0.700781,
2010-06-15, 03:19:04,VALID,917.676,VALID,0,VALID,96.2533,VALID,0,VALID,20.2489,VALID,18,VALID,0.622656,
2010-06-15, 03:20:04,VALID,917.664,VALID,0,VALID,96.1923,VALID,0,VALID,20.2879,VALID,19,VALID,0.908984,
2010-06-15, 03:21:04,VALID,917.655,VALID,0,VALID,96.1313,VALID,0,VALID,20.3074,VALID,19,VALID,0.947656,
2010-06-15, 03:22:04,VALID,917.689,VALID,0,VALID,96.0474,VALID,0,VALID,20.3269,VALID,18,VALID,0.771484,
2010-06-15, 03:23:04,VALID,917.655,VALID,0,VALID,95.9559,VALID,0,VALID,20.3269,VALID,19,VALID,0.651953,
2010-06-15, 03:24:04,VALID,917.643,VALID,0,VALID,95.895,VALID,0,VALID,20.3659,VALID,19,VALID,0.715625,
2010-06-15, 03:25:04,VALID,917.656,VALID,0,VALID,95.7958,VALID,0,VALID,20.3253,VALID,19,VALID,0.522656,
2010-06-15, 03:26:04,VALID,917.647,VALID,0,VALID,95.712,VALID,0,VALID,20.3269,VALID,18,VALID,0.170312,
2010-06-15, 03:27:04,VALID,917.644,VALID,0,VALID,95.7349,VALID,0,VALID,20.3058,VALID,19,VALID,1.13984,
2010-06-15, 03:28:04,VALID,917.673,VALID,0,VALID,95.6815,VALID,0,VALID,20.2473,VALID,19,VALID,0.545703,
2010-06-15, 03:29:04,VALID,917.653,VALID,0,VALID,95.8035,VALID,0,VALID,20.2684,VALID,19,VALID,0.589063,
2010-06-15, 03:30:04,VALID,917.628,VALID,0,VALID,95.8416,VALID,0,VALID,20.2684,VALID,19,VALID,0.616406,
2010-06-15, 03:31:04,VALID,917.627,VALID,0,VALID,95.9026,VALID,0,VALID,20.2293,VALID,18,VALID,0.559375,
2010-06-15, 03:32:04,VALID,917.592,VALID,0,VALID,95.9331,VALID,0,VALID,20.1903,VALID,18,VALID,0.484375,
2010-06-15, 03:33:04,VALID,917.6,VALID,0,VALID,96.0017,VALID,0,VALID,20.1693,VALID,18,VALID,0.240234,
2010-06-15, 03:34:04,VALID,917.562,VALID,0,VALID,96.0855,VALID,0,VALID,20.1708,VALID,18,VALID,0,
2010-06-15, 03:35:04,VALID,917.572,VALID,0,VALID,96.1846,VALID,0,VALID,20.1903,VALID,18,VALID,0.33125,
2010-06-15, 03:36:04,VALID,917.512,VALID,0,VALID,96.2228,VALID,0,VALID,20.1888,VALID,18,VALID,0.0304688,
2010-06-15, 03:37:04,VALID,917.435,VALID,0,VALID,96.3524,VALID,0,VALID,20.2684,VALID,18,VALID,0.709766,
2010-06-15, 03:38:04,VALID,917.478,VALID,0,VALID,96.2914,VALID,0,VALID,20.2879,VALID,19,VALID,0.675391,
2010-06-15, 03:39:04,VALID,917.46,VALID,0,VALID,96.0703,VALID,0,VALID,20.2668,VALID,18,VALID,0.636719,
2010-06-15, 03:40:04,VALID,917.472,VALID,0,VALID,96.055,VALID,0,VALID,20.3269,VALID,19,VALID,0.678516,
2010-06-15, 03:41:04,VALID,917.474,VALID,0,VALID,95.9407,VALID,0,VALID,20.3253,VALID,19,VALID,0.628516,
2010-06-15, 03:42:04,VALID,917.469,VALID,0,VALID,95.7806,VALID,0,VALID,20.3058,VALID,18,VALID,0.525781,
2010-06-15, 03:43:04,VALID,917.494,VALID,0,VALID,95.7654,VALID,0,VALID,20.3269,VALID,19,VALID,0.758203,
2010-06-15, 03:44:04,VALID,917.51,VALID,0,VALID,95.7654,VALID,0,VALID,20.2863,VALID,18,VALID,0.394141,
2010-06-15, 03:45:04,VALID,917.484,VALID,0,VALID,95.8263,VALID,0,VALID,20.2879,VALID,18,VALID,0.598047,
2010-06-15, 03:46:04,VALID,917.464,VALID,0,VALID,95.7501,VALID,0,VALID,20.2489,VALID,19,VALID,0.364844,